Starlink 32165

operational
NORAD ID: 60599 Int'l Des: 2024-150 Owner: SPXS Country: US Constellation: starlink
LEOCIRCULAR

关于 Starlink 32165

正在加载描述...

实时位置

正在加载3D地球...

即将过境

高度历史

Altitude vs Time

uPlot chart will show altitude changes over time

两行轨道根数

1 60599U 24150S 25353.13091866 .00000851 00000-0 40850-4 0 9998
2 60599 53.1629 321.4851 0001302 79.7444 280.3703 15.30195516 75700
Epoch: Dec 19, 2025 • Age: 9 hours

当前状态

高度 494.7 km
速度 7.62 km/s
星下点 -53.31°S, 41.85°W
发射日期 Aug 20, 2024
运行时间 1.3 years
类型 internet

技术详情

分类 Payload
质量 730.00 kg
干质量 700.00 kg
总质量 730.00 kg
长度 0.30 m
直径 4.10 m
跨度 29.00 m
形状 Box + pan
制造商 SPXS
平台类型 Starlink V2M
阶段状态 In Orbit
所有者/国家 SPXS/US

大型星座

Loading constellations...